GSLV R/B (43699 NORAD) Tracking and Keplerian Element Data

This shows tracking and keplerian element data for the satellite.

Feedback or suggestion? Click here.




ElementValue
Catalog43699
NameGSLV R/B
Epoch Orbit68
Epoch Day347.55326751
Epoch Year2018
RAAN156.1004
Inclination21.5193
Eccentricity0.72773
Argument of Perigee198.9507
Mean Anonmoly104.607
Mean Motion2.31805116
Decay Rate6.809E-05
L11 43699U 18089B 18347.55326751 .00006809 11378-5 45293-3 0 9998
L22 43699 21.5193 156.1004 7277300 198.9507 104.6070 2.31805116 685



Live tracking and technical data element details for GSLV R/B (NORAD 43699). GSLV R/B can be tracked NOW for your location showing map with azimuth and elevation plus other details from your city location.







IsCatalogInMostPopularTable: catalog: 43699, numindb: 472
Update: records affected: 1



GetName: 43699 GSLV R/B

Hit Count: updated at: Sun, 11 Jun 2023 01:15:26 GMT